| time (UTC) | temp C | wind direction | speed KPH | gust KPH | rain 1hr cm | rain 24hr cm | rain mn cm | humidity % | barometer mb |
| 20260505010506 | 21 | 235 | 3.2 | 16.1 | 0.00 | 0.00 | 0.00 | 52 | 1005.4 |
| 20260505010019 | 21 | 254 | 1.6 | 12.9 | 0.00 | 0.00 | 0.00 | 52 | 1005.3 |
| 20260505005507 | 21 | 212 | 3.2 | 12.9 | 0.00 | 0.00 | 0.00 | 52 | 1005.3 |
| 20260505005010 | 21 | 231 | 3.2 | 12.9 | 0.00 | 0.00 | 0.00 | 51 | 1005.3 |
| 20260505004521 | 21 | 215 | 3.2 | 14.5 | 0.00 | 0.00 | 0.00 | 51 | 1005.4 |
| 20260505004003 | 22 | 211 | 3.2 | 16.1 | 0.00 | 0.00 | 0.00 | 50 | 1005.3 |
| 20260505003508 | 22 | 217 | 8.0 | 16.1 | 0.00 | 0.00 | 0.00 | 49 | 1005.3 |
| 20260505003008 | 22 | 233 | 4.8 | 12.9 | 0.00 | 0.00 | 0.00 | 49 | 1005.3 |
| 20260505002503 | 22 | 223 | 4.8 | 16.1 | 0.00 | 0.00 | 0.00 | 48 | 1005.4 |
| 20260505002006 | 22 | 221 | 6.4 | 16.1 | 0.00 | 0.00 | 0.00 | 48 | 1005.3 |
| 20260505001514 | 22 | 188 | 6.4 | 16.1 | 0.00 | 0.00 | 0.00 | 48 | 1005.5 |
| 20260505001009 | 22 | 207 | 6.4 | 17.7 | 0.00 | 0.00 | 0.00 | 48 | 1005.5 |
| 20260505000504 | 22 | 245 | 9.7 | 19.3 | 0.00 | 0.00 | 0.00 | 48 | 1005.5 |
| 20260505000019 | 22 | 214 | 8.0 | 22.5 | 0.00 | 0.00 | 0.00 | 47 | 1005.5 |
| 20260504235506 | 22 | 221 | 9.7 | 22.5 | 0.00 | 0.00 | 0.00 | 47 | 1005.6 |
| 20260504235007 | 23 | 222 | 9.7 | 25.7 | 0.00 | 0.00 | 0.00 | 47 | 1005.6 |
| 20260504234523 | 23 | 243 | 12.9 | 25.7 | 0.00 | 0.00 | 0.00 | 46 | 1005.7 |
| 20260504234008 | 23 | 248 | 8.0 | 30.6 | 0.00 | 0.00 | 0.00 | 46 | 1005.8 |
| 20260504233510 | 23 | 242 | 19.3 | 35.4 | 0.00 | 0.00 | 0.00 | 45 | 1005.7 |
| 20260504233010 | 23 | 264 | 14.5 | 35.4 | 0.00 | 0.00 | 0.00 | 46 | 1005.8 |
| 20260504232501 | 23 | 263 | 9.7 | 25.7 | 0.00 | 0.00 | 0.00 | 47 | 1005.6 |
| 20260504232001 | 23 | 223 | 12.9 | 24.1 | 0.00 | 0.00 | 0.00 | 49 | 1005.6 |
| 20260504231509 | 23 | 146 | 6.4 | 24.1 | 0.00 | 0.00 | 0.00 | 54 | 1005.7 |
| 20260504231005 | 23 | 238 | 6.4 | 12.9 | 0.00 | 0.00 | 0.00 | 53 | 1005.7 |
| 20260504230506 | 22 | 155 | 3.2 | 17.7 | 0.00 | 0.00 | 0.00 | 55 | 1005.8 |
| 20260504230016 | 22 | 227 | 8.0 | 16.1 | 0.00 | 0.00 | 0.00 | 53 | 1005.8 |
| 20260504225509 | 22 | 196 | 3.2 | 9.7 | 0.00 | 0.00 | 0.00 | 54 | 1005.9 |
| 20260504225006 | 22 | 235 | 3.2 | 11.3 | 0.00 | 0.00 | 0.00 | 54 | 1006.0 |
| 20260504224520 | 22 | 210 | 4.8 | 12.9 | 0.00 | 0.00 | 0.00 | 53 | 1006.1 |
| 20260504224005 | 22 | 235 | 3.2 | 11.3 | 0.00 | 0.00 | 0.00 | 53 | 1006.1 |
| 20260504223510 | 23 | 215 | 4.8 | 9.7 | 0.00 | 0.00 | 0.00 | 53 | 1006.2 |
| 20260504223025 | 23 | 233 | 4.8 | 14.5 | 0.00 | 0.00 | 0.00 | 52 | 1006.2 |
| 20260504222509 | 23 | 221 | 4.8 | 14.5 | 0.00 | 0.00 | 0.00 | 52 | 1006.2 |
| 20260504222009 | 23 | 360 | 8.0 | 14.5 | 0.00 | 0.00 | 0.00 | 50 | 1006.2 |
| 20260504221516 | 23 | 360 | 6.4 | 14.5 | 0.00 | 0.00 | 0.00 | 52 | 1006.3 |
| 20260504221005 | 23 | 209 | 4.8 | 12.9 | 0.00 | 0.00 | 0.00 | 52 | 1006.3 |
| 20260504220506 | 22 | 228 | 3.2 | 9.7 | 0.00 | 0.00 | 0.00 | 51 | 1006.1 |
| 20260504220016 | 22 | 163 | 3.2 | 14.5 | 0.00 | 0.00 | 0.00 | 53 | 1006.4 |
| 20260504215506 | 22 | 240 | 4.8 | 19.3 | 0.00 | 0.00 | 0.00 | 51 | 1006.7 |
| 20260504215006 | 22 | 229 | 8.0 | 19.3 | 0.00 | 0.00 | 0.00 | 50 | 1006.8 |
| 20260504214521 | 22 | 276 | 6.4 | 17.7 | 0.00 | 0.00 | 0.00 | 52 | 1006.8 |
| 20260504214008 | 22 | 223 | 8.0 | 17.7 | 0.00 | 0.00 | 0.00 | 54 | 1006.8 |
| 20260504213505 | 22 | 242 | 9.7 | 17.7 | 0.00 | 0.00 | 0.00 | 50 | 1006.8 |
| 20260504213024 | 22 | 236 | 9.7 | 19.3 | 0.00 | 0.00 | 0.00 | 51 | 1006.9 |
| 20260504212511 | 23 | 284 | 8.0 | 24.1 | 0.00 | 0.00 | 0.00 | 51 | 1006.9 |
| 20260504212010 | 22 | 231 | 11.3 | 25.7 | 0.00 | 0.00 | 0.00 | 51 | 1007.0 |
| 20260504211528 | 22 | 237 | 9.7 | 25.7 | 0.00 | 0.00 | 0.00 | 51 | 1007.0 |
| 20260504211006 | 22 | 246 | 9.7 | 24.1 | 0.00 | 0.00 | 0.00 | 53 | 1007.2 |
| 20260504210505 | 22 | 240 | 11.3 | 24.1 | 0.00 | 0.00 | 0.00 | 52 | 1007.2 |
| 20260504210014 | 22 | 360 | 12.9 | 24.1 | 0.00 | 0.00 | 0.00 | 52 | 1007.2 |
| 20260504205509 | 22 | 241 | 11.3 | 20.9 | 0.00 | 0.00 | 0.00 | 51 | 1007.2 |
| 20260504205010 | 22 | 317 | 8.0 | 22.5 | 0.00 | 0.00 | 0.00 | 54 | 1007.3 |
| 20260504204520 | 22 | 251 | 6.4 | 22.5 | 0.00 | 0.00 | 0.00 | 54 | 1007.4 |
| 20260504204007 | 22 | 294 | 9.7 | 24.1 | 0.00 | 0.00 | 0.00 | 52 | 1007.8 |
| 20260504203507 | 22 | 266 | 14.5 | 24.1 | 0.00 | 0.00 | 0.00 | 52 | 1007.7 |
| 20260504203024 | 22 | 222 | 9.7 | 20.9 | 0.00 | 0.00 | 0.00 | 53 | 1007.7 |
| 20260504202509 | 22 | 239 | 12.9 | 24.1 | 0.00 | 0.00 | 0.00 | 51 | 1007.5 |
| 20260504202010 | 22 | 279 | 11.3 | 24.1 | 0.00 | 0.00 | 0.00 | 55 | 1007.6 |
| 20260504201528 | 22 | 291 | 9.7 | 17.7 | 0.00 | 0.00 | 0.00 | 56 | 1007.6 |
| 20260504201011 | 22 | 267 | 8.0 | 20.9 | 0.00 | 0.00 | 0.00 | 56 | 1007.6 |
| 20260504200509 | 21 | 256 | 9.7 | 20.9 | 0.00 | 0.00 | 0.00 | 61 | 1007.8 |
| 20260504200037 | 21 | 238 | 9.7 | 19.3 | 0.00 | 0.00 | 0.00 | 59 | 1007.8 |
| 20260504195504 | 21 | 261 | 8.0 | 17.7 | 0.00 | 0.00 | 0.00 | 59 | 1008.1 |
| 20260504195003 | 21 | 246 | 4.8 | 19.3 | 0.00 | 0.00 | 0.00 | 59 | 1008.2 |
| 20260504194521 | 20 | 163 | 9.7 | 19.3 | 0.00 | 0.00 | 0.00 | 59 | 1008.2 |
| 20260504194013 | 20 | 274 | 6.4 | 17.7 | 0.00 | 0.00 | 0.00 | 61 | 1008.4 |
| 20260504193507 | 20 | 215 | 11.3 | 17.7 | 0.00 | 0.00 | 0.00 | 60 | 1008.5 |
| 20260504193022 | 20 | 236 | 4.8 | 11.3 | 0.00 | 0.00 | 0.00 | 60 | 1008.2 |
| 20260504192507 | 20 | 215 | 6.4 | 11.3 | 0.00 | 0.00 | 0.00 | 61 | 1009.0 |
| 20260504192007 | 19 | 261 | 3.2 | 12.9 | 0.00 | 0.00 | 0.00 | 62 | 1009.1 |
| 20260504191538 | 19 | 257 | 3.2 | 12.9 | 0.00 | 0.00 | 0.00 | 61 | 1008.6 |
| 20260504191009 | 19 | 246 | 4.8 | 19.3 | 0.00 | 0.00 | 0.00 | 61 | 1009.1 |
| 20260504190507 | 19 | 244 | 4.8 | 19.3 | 0.00 | 0.00 | 0.00 | 61 | 1009.1 |
| 20260504190027 | 19 | 255 | 8.0 | 25.7 | 0.00 | 0.00 | 0.00 | 61 | 1009.5 |
| 20260504185511 | 20 | 267 | 6.4 | 25.7 | 0.00 | 0.00 | 0.00 | 61 | 1009.3 |
| 20260504185010 | 20 | 209 | 8.0 | 20.9 | 0.00 | 0.00 | 0.00 | 59 | 1009.3 |
| 20260504184516 | 20 | 258 | 6.4 | 27.4 | 0.00 | 0.00 | 0.00 | 60 | 1009.2 |
| 20260504184007 | 20 | 293 | 9.7 | 27.4 | 0.00 | 0.00 | 0.00 | 59 | 1009.1 |
| 20260504183508 | 20 | 233 | 14.5 | 24.1 | 0.00 | 0.00 | 0.00 | 57 | 1009.1 |
| 20260504183035 | 20 | 264 | 8.0 | 27.4 | 0.00 | 0.00 | 0.00 | 58 | 1008.7 |
| 20260504182509 | 20 | 260 | 12.9 | 27.4 | 0.00 | 0.00 | 0.00 | 59 | 1008.6 |
| 20260504182010 | 20 | 238 | 9.7 | 25.7 | 0.00 | 0.00 | 0.00 | 58 | 1008.5 |
| 20260504181526 | 21 | 218 | 12.9 | 25.7 | 0.00 | 0.00 | 0.00 | 58 | 1008.4 |
| 20260504181010 | 20 | 211 | 17.7 | 25.7 | 0.00 | 0.00 | 0.00 | 57 | 1008.2 |
| 20260504180509 | 20 | 212 | 6.4 | 22.5 | 0.00 | 0.00 | 0.00 | 61 | 1008.1 |
| 20260504180009 | 20 | 225 | 12.9 | 22.5 | 0.00 | 0.00 | 0.00 | 60 | 1008.1 |
| 20260504175504 | 20 | 165 | 6.4 | 22.5 | 0.00 | 0.00 | 0.00 | 63 | 1008.2 |
| 20260504175004 | 20 | 146 | 8.0 | 24.1 | 0.00 | 0.00 | 0.00 | 62 | 1008.1 |
| 20260504174515 | 20 | 235 | 11.3 | 24.1 | 0.00 | 0.00 | 0.00 | 60 | 1008.3 |
| 20260504174004 | 20 | 232 | 8.0 | 17.7 | 0.00 | 0.00 | 0.00 | 61 | 1008.5 |
| 20260504173503 | 20 | 222 | 9.7 | 17.7 | 0.00 | 0.00 | 0.00 | 61 | 1008.5 |
| 20260504173011 | 20 | 218 | 4.8 | 16.1 | 0.00 | 0.00 | 0.00 | 61 | 1008.3 |
| 20260504172507 | 19 | 239 | 8.0 | 16.1 | 0.00 | 0.00 | 0.00 | 63 | 1008.2 |
| 20260504172004 | 19 | 183 | 9.7 | 14.5 | 0.00 | 0.00 | 0.00 | 62 | 1008.3 |
| 20260504171503 | 19 | 244 | 4.8 | 14.5 | 0.00 | 0.00 | 0.00 | 63 | 1008.5 |
| 20260504171008 | 19 | 202 | 6.4 | 11.3 | 0.00 | 0.00 | 0.00 | 62 | 1008.3 |
| 20260504170504 | 18 | 185 | 4.8 | 11.3 | 0.00 | 0.00 | 0.00 | 62 | 1008.6 |
| 20260504151006 | 16 | 242 | 8.0 | 14.5 | 0.00 | 0.00 | 0.00 | 65 | 1009.3 |
| 20260504150506 | 16 | 215 | 8.0 | 14.5 | 0.00 | 0.00 | 0.00 | 63 | 1009.2 |
| 20260504141011 | 15 | 209 | 9.7 | 17.7 | 0.00 | 0.00 | 0.00 | 65 | 1009.8 |
| 20260504140505 | 15 | 232 | 9.7 | 16.1 | 0.00 | 0.00 | 0.00 | 66 | 1009.8 |
| 20260504130506 | 12 | 229 | 3.2 | 16.1 | 0.00 | 0.00 | 0.00 | 68 | 1010.0 |
| 20260504110505 | 10 | 178 | 0.0 | 3.2 | 0.00 | 0.00 | 0.00 | 69 | 1009.8 |
| 20260504100507 | 10 | 192 | 0.0 | 3.2 | 0.00 | 0.00 | 0.00 | 67 | 1010.1 |
| 20260504082003 | 11 | 103 | 0.0 | 6.4 | 0.00 | 0.00 | 0.00 | 62 | 1010.7 |
| 20260504081508 | 11 | 258 | 0.0 | 6.4 | 0.00 | 0.00 | 0.00 | 62 | 1010.8 |
| 20260504081003 | 11 | 198 | 1.6 | 6.4 | 0.00 | 0.00 | 0.00 | 62 | 1010.7 |
| 20260504080503 | 11 | 149 | 3.2 | 6.4 | 0.00 | 0.00 | 0.00 | 62 | 1010.7 |
| 20260504050507 | 10 | 131 | 0.0 | 6.4 | 0.00 | 0.00 | 0.00 | 62 | 1012.4 |
| 20260504045503 | 10 | 161 | 0.0 | 6.4 | 0.00 | 0.00 | 0.00 | 62 | 1012.5 |
| 20260504045003 | 10 | 184 | 0.0 | 6.4 | 0.00 | 0.00 | 0.00 | 61 | 1012.5 |
| 20260504044522 | 11 | 158 | 1.6 | 6.4 | 0.00 | 0.00 | 0.00 | 61 | 1012.5 |
| 20260504044009 | 11 | 118 | 1.6 | 4.8 | 0.00 | 0.00 | 0.00 | 61 | 1012.6 |
| 20260504043506 | 11 | 100 | 1.6 | 4.8 | 0.00 | 0.00 | 0.00 | 60 | 1012.7 |
| 20260504043026 | 11 | 113 | 1.6 | 4.8 | 0.00 | 0.00 | 0.00 | 60 | 1012.7 |
| 20260504042507 | 11 | 103 | 0.0 | 4.8 | 0.00 | 0.00 | 0.00 | 59 | 1012.7 |
| 20260504042006 | 11 | 128 | 1.6 | 4.8 | 0.00 | 0.00 | 0.00 | 59 | 1012.7 |
| 20260504041524 | 11 | 109 | 1.6 | 6.4 | 0.00 | 0.00 | 0.00 | 59 | 1012.8 |
| 20260504041008 | 11 | 147 | 1.6 | 6.4 | 0.00 | 0.00 | 0.00 | 58 | 1012.9 |
| 20260504040508 | 11 | 134 | 1.6 | 4.8 | 0.00 | 0.00 | 0.00 | 58 | 1012.9 |
| 20260504040026 | 11 | 138 | 3.2 | 4.8 | 0.00 | 0.00 | 0.00 | 58 | 1012.9 |
| 20260504035507 | 12 | 163 | 1.6 | 6.4 | 0.00 | 0.00 | 0.00 | 57 | 1012.9 |
| 20260504035011 | 12 | 149 | 3.2 | 6.4 | 0.00 | 0.00 | 0.00 | 57 | 1012.9 |
| 20260504034544 | 12 | 148 | 3.2 | 6.4 | 0.00 | 0.00 | 0.00 | 56 | 1013.1 |
| 20260504034002 | 12 | 157 | 1.6 | 6.4 | 0.00 | 0.00 | 0.00 | 56 | 1013.1 |
| 20260504033507 | 12 | 134 | 1.6 | 6.4 | 0.00 | 0.00 | 0.00 | 56 | 1013.1 |
| 20260504033018 | 12 | 167 | 0.0 | 4.8 | 0.00 | 0.00 | 0.00 | 56 | 1013.2 |
| 20260504032507 | 12 | 121 | 0.0 | 6.4 | 0.00 | 0.00 | 0.00 | 56 | 1013.1 |
| 20260504032011 | 12 | 131 | 1.6 | 6.4 | 0.00 | 0.00 | 0.00 | 55 | 1013.1 |
| 20260504031522 | 12 | 145 | 1.6 | 6.4 | 0.00 | 0.00 | 0.00 | 55 | 1013.1 |
| 20260504031006 | 12 | 177 | 0.0 | 6.4 | 0.00 | 0.00 | 0.00 | 54 | 1013.2 |
| 20260504030509 | 12 | 167 | 1.6 | 6.4 | 0.00 | 0.00 | 0.00 | 53 | 1013.2 |
| 20260504030039 | 12 | 202 | 1.6 | 4.8 | 0.00 | 0.00 | 0.00 | 53 | 1013.4 |
| 20260504025512 | 12 | 173 | 1.6 | 4.8 | 0.00 | 0.00 | 0.00 | 1013.3 | |
| 20260504025009 | 12 | 188 | 0.0 | 4.8 | 0.00 | 0.00 | 0.00 | 53 | 1013.4 |
| 20260504024529 | 13 | 199 | 0.0 | 4.8 | 0.00 | 0.00 | 0.00 | 53 | 1013.4 |
| 20260504024007 | 13 | 190 | 1.6 | 6.4 | 0.00 | 0.00 | 0.00 | 51 | 1013.5 |
| 20260504023509 | 13 | 183 | 0.0 | 8.0 | 0.00 | 0.00 | 0.00 | 51 | 1013.5 |
| 20260504023028 | 13 | 162 | 1.6 | 8.0 | 0.00 | 0.00 | 0.00 | 50 | 1013.5 |
| 20260504022502 | 13 | 150 | 0.0 | 9.7 | 0.00 | 0.00 | 0.00 | 50 | 1013.4 |
| 20260504022008 | 13 | 231 | 1.6 | 9.7 | 0.00 | 0.00 | 0.00 | 49 | 1013.5 |
| 20260504021522 | 13 | 176 | 1.6 | 4.8 | 0.00 | 0.00 | 0.00 | 50 | 1013.4 |
| 20260504021008 | 13 | 178 | 0.0 | 6.4 | 0.00 | 0.00 | 0.00 | 50 | 1013.5 |
| 20260504020505 | 13 | 225 | 3.2 | 16.1 | 0.00 | 0.00 | 0.00 | 47 | 1013.5 |
| 20260504020004 | 13 | 194 | 8.0 | 16.1 | 0.00 | 0.00 | 0.00 | 46 | 1013.4 |
| 20260504015503 | 13 | 157 | 1.6 | 4.8 | 0.00 | 0.00 | 0.00 | 46 | 1013.5 |
| 20260504015004 | 13 | 205 | 1.6 | 4.8 | 0.00 | 0.00 | 0.00 | 46 | 1013.3 |
| 20260504014528 | 13 | 232 | 1.6 | 4.8 | 0.00 | 0.00 | 0.00 | 47 | 1013.2 |
| 20260504014006 | 13 | 214 | 0.0 | 4.8 | 0.00 | 0.00 | 0.00 | 46 | 1013.1 |
| 20260504013503 | 13 | 221 | 3.2 | 4.8 | 0.00 | 0.00 | 0.00 | 45 | 1013.0 |
| 20260504013013 | 13 | 184 | 1.6 | 11.3 | 0.00 | 0.00 | 0.00 | 46 | 1013.1 |
| 20260504012503 | 13 | 240 | 3.2 | 11.3 | 0.00 | 0.00 | 0.00 | 45 | 1013.0 |
| 20260504012003 | 13 | 157 | 0.0 | 6.4 | 0.00 | 0.00 | 0.00 | 47 | 1013.0 |
| 20260504011520 | 13 | 150 | 0.0 | 3.2 | 0.00 | 0.00 | 0.00 | 45 | 1013.0 |
| 20260504011007 | 13 | 117 | 0.0 | 4.8 | 0.00 | 0.00 | 0.00 | 45 | 1013.0 |